Content
SEND FEEDBACK

Daily
Averages
Monthly
Summary
United States of America

NEW MARKET, INDIANA


Home > North America > United States > Indiana
Elevation: 232 meters     Latitude: 39 58N     Longitude: 086 55W

WEATHER
 
SELECT A DAY
Number of Records: 209,526;   Date Range: 1/1/95 - 12/16/14
 
SHARE

PRINT THIS DATA

[ ← Previous Day ]
WEATHER ALMANAC - 13 FEBRUARY, 2013
[ Next Day → ]
[ °F ]   °C
Weather ElementAverageHighLow
Temperature1 °C7.8 °C (3:54 pm)-5 °C (6:54 am)
Dewpoint-3.5 °C-1.1 °C (6:54 pm)-6.1 °C (6:54 am)
Humidity74.4 %92 % (3:54 am)46 % (3:54 pm)
Barometer1010.8 hPa1014.6 hPa (1:54 am)1008.1 hPa (3:54 pm)
Wind Speed6.6 km/h22.2 km/h (4:54 pm)
Wind Gust29.6 km/h (4:54 pm)
Weather ElementAverage
Visibility13.4 km
Wind DirectionSE (133.5 °)

Weather ElementTotal
Precipitation---
Heating Degree Days16.9 (Base 18.3)
Averaged from 23 records on 13 February, 2013
WEATHER CONDITIONS BREAKOUT
WIND DIRECTION BREAKOUT
WEATHER BY HOUR - 13 FEBRUARY, 2013
[ °F ]   °C
Local TimeTemperatureDewpointHumidityBarometerVisibilityWind DirectionWind SpeedGust SpeedPrecipitationEventsConditions
1:54 AM-4.4 °C-5.6 °C91 %1014.6 hPa9.7 kmCalmClear
2:54 AM-3.9 °C-5.6 °C88 %1013.9 hPa11.3 kmNorth (10°)5.6 km/hClear
3:54 AM-3.9 °C-5 °C92 %1013.2 hPa9.7 kmSSE (150°)5.6 km/hClear
4:54 AM-3.3 °C-5 °C88 %1012.5 hPa9.7 kmCalmClear
5:54 AM-4.4 °C-5.6 °C91 %1011.9 hPa8 kmCalmClear
6:54 AM-5 °C-6.1 °C92 %1011.5 hPa8 kmCalmClear
7:54 AM-4.4 °C-5.6 °C91 %1011.2 hPa8 kmCalmClear
8:54 AM-3.3 °C-5 °C88 %1011.9 hPa6.4 kmCalmClear
9:54 AM-1.1 °C-3.3 °C85 %1011.9 hPa9.7 kmCalmClear
10:54 AM1.1 °C-3.3 °C73 %1011.5 hPa16.1 kmVariable7.4 km/hClear
11:54 AM2.8 °C-2.8 °C67 %1011.2 hPa16.1 kmSW (220°)13 km/hClear
12:54 PM4.4 °C-2.8 °C60 %1010.2 hPa16.1 kmVariable7.4 km/hClear
1:54 PM6.1 °C-2.8 °C53 %1008.8 hPa16.1 kmSSW (210°)13 km/hClear
2:54 PM7.2 °C-2.8 °C49 %1008.5 hPa16.1 kmWSW (240°)14.8 km/hClear
3:54 PM7.8 °C-3.3 °C46 %1008.1 hPa16.1 kmWSW (250°)13 km/h27.8 km/hClear
4:54 PM7.8 °C-3.3 °C46 %1008.5 hPa16.1 kmWest (260°)22.2 km/h29.6 km/hClear
5:54 PM6.1 °C-1.7 °C58 %1008.5 hPa16.1 kmSW (230°)11.1 km/hClear
6:54 PM5 °C-1.1 °C65 %1009.1 hPa16.1 kmSW (230°)7.4 km/hClear
7:54 PM3.3 °C-1.1 °C73 %1009.8 hPa16.1 kmWest (280°)5.6 km/hScattered Clouds
8:54 PM2.2 °C-1.7 °C76 %1009.8 hPa16.1 kmWest (270°)7.4 km/hClear
9:54 PM1.1 °C-2.2 °C79 %1010.2 hPa16.1 kmWSW (250°)5.6 km/hScattered Clouds
10:54 PM0.6 °C-2.2 °C82 %1009.8 hPa16.1 kmWSW (240°)5.6 km/hClear
11:54 PM0.6 °C-2.8 °C78 %1010.2 hPa16.1 kmSW (230°)5.6 km/hClear
Hourly data recorded from KLAF, located 0 kilometers away from New Market, Indiana







STORIES FROM OUR PARTNERS